Regional Weather Roundup
Issued by NWS

Home | Current Version | Previous Version | Graphics & Text | Print | Product List | Glossary On
Versions: 1 2 3 4 5 6 7 8 9 10 11 12 13 14 15 16 17 18 19 20 21 22 23 24 25 26 27 28 29 30 31 32 33 34 35 36 37 38 39 40 41 42 43 44 45 46 47 48 49 50
000
ASUS44 KMEG 251800
RWRTN
TENNESSEE HOURLY STATE WEATHER ROUNDUP
NATIONAL WEATHER SERVICE MEMPHIS TN
100 PM CDT TUE APR 25 2017

TNZ002-004-019-021-049-052-054-088>092-251900-
WEST TENNESSEE

CITY           SKY/WX    TMP DP  RH WIND       PRES   REMARKS
MEMPHIS INTL   MOSUNNY   78  52  40 S14       29.71F
NWS MEMPHIS      N/A     77 N/A N/A MISG        N/A
JACKSON        SUNNY     76  54  46 S8        29.74F
DYERSBURG      SUNNY     76  53  44 SE7       29.72F
PARIS          SUNNY     73  55  53 S7        29.74F
$$

TNZ008-025-027-028-033-062-065-066-251900-
NORTH MIDDLE TENNESSEE

CITY           SKY/WX    TMP DP  RH WIND       PRES   REMARKS
NASHVILLE      PTSUNNY   74  57  55 E9        29.78F
CLARKSVILLE    PTSUNNY   72  56  57 VRB5      29.75F
SMYRNA         PTSUNNY   70  56  61 CALM      29.79F
CROSSVILLE     CLOUDY    68  53  58 NW3       29.80F
$$

TNZ061-075-076-078-094-096-097-251900-
SOUTH MIDDLE TENNESSEE

CITY           SKY/WX    TMP DP  RH WIND       PRES   REMARKS
TULLAHOMA      MOSUNNY   70  54  56 VRB5      29.80F
WINCHESTER     SUNNY     70  55  60 CALM      29.79F
MCMINNVILLE    PTSUNNY   68  55  64 CALM      29.80F
COLUMBIA       PTSUNNY   73  63  68 CALM      29.77S
SHELBYVILLE    PTSUNNY   73  59  60 S5        29.80S
$$

TNZ017-018-042-046-047-251900-
NORTHEAST TENNESSEE

CITY           SKY/WX    TMP DP  RH WIND       PRES   REMARKS
TRI CITIES     CLOUDY    63  54  72 SW9       29.78F
$$

TNZ012-013-036-069-073-074-251900-
CENTRAL EAST TENNESSEE

CITY           SKY/WX    TMP DP  RH WIND       PRES   REMARKS
KNOXVILLE      CLOUDY    68  54  60 N3        29.77F
OAK RIDGE      CLOUDY    70  54  56 VRB5      29.78F
GATLINBURG     PTSUNNY   70  54  56 CALM      29.77S
$$

TNZ083-085-099-251900-
SOUTHEAST TENNESSEE

CITY           SKY/WX    TMP DP  RH WIND       PRES   REMARKS
CHATTANOOGA    PTSUNNY   73  54  51 NW7       29.77F
$$

SKY/WX REPORTED AS FAIR MEANS FEW OR NO CLOUDS BELOW
12 THOUSAND FEET.





USA.gov is the U.S. government's official web portal to all federal, state and local government web resources and services.